Showing default

ION SCV-004, 50993

Orbit data source: Space-Track

ION SCV-004, 50993 is a payload satellite owned by D-ORBIT (IT) in SSO that was launched on Thu, 13 Jan 2022 UTC via an FALCON 9 launch vehicle from the Air Force Eastern Test Range (AFETR). Payload-class satellites include a variety of spacecraft equipped with specific instruments for various scientific and technological missions. These include communications satellites like Starlink; space stations such as the ISS; scientific satellites like the Hubble; Earth observation satellites from companies like Planet Labs, Umbra, and HawkEye 360; GPS; miniature CubeSats for education and research; and military/defense satellites.

Loading next visibility...
Identifier
50993, 2022-002K
Orbit
SSO
Country
Flag of ITIT
Related business
Manufacturer
D-ORBIT
Mission
Operational Commercial Technology
Bus & Motor
ION-SC, PM200
Mass
220 kg wet, 150 kg dry
Launch date (UTC)
2022-01-13 (5 years ago)
Launch vehicle
FALCON 9
Launch site
Air Force Eastern Test Range (AFETR)
Object type
Payload
Rocket body
Debris
Shape & HBR
Box, 2.0 m
Radar Cross Section
0.240 m², Large (>1 m²)

Expand to show TLE details & history
Last TLE update: 9 hours ago

TLE from 9 hours ago
0 ION SCV-004
1 50993U 22002K   26207.59028268  .00005410  00000-0  18416-3 0  9992
2 50993  97.2816 264.5120 0006642 199.3386 160.7604 15.30803991251324
Epoch: 2026-07-26T14:10Z
TLE epoch observation values (Epoch: 2026-07-26T14:10:00.423Z)
Latitude
-0.00006°
Longitude
107.72422°
Altitude
480.819 km
Speed
7.623 km/s
True Right ascension
17h 38m 02s
True Declination
0° 00' 00"
Sunlit
Object was in full shadow at epoch
Visualization orbit readout
Latitude
Unknown
Longitude
Unknown
Altitude
Unknown
Speed
Unknown
Apparent Right ascension
Unknown
Apparent Declination
Unknown
Sunlit
N/A
Visualization observer readout
Local Sidereal Time
11:58:55
Azimuth
Unknown
Elevation
Unknown
Doppler factor
Unknown
Orbital elements
Apogee altitude
474.907 km
Perigee altitude
465.81 km
Semi-major axis
6,848.495 km
Eccentricity
0.00066
Inclination
97.2816°
RAAN
264.512°
Arg. of periapsis
199.3386°
True anomaly
160.78546°
Mean anomaly
160.7604°
Eccentric anomaly
160.77293°
Mean motion
3.82957 °/min
Orbital period
94.01 mins
BSTAR
0.00018416
Loading maneuver chart data...
Computing Atmospheric mass density...

Documentation

Showing up to 5 results
|